Погода в Молдине

Россия / Тверская область     57°44′53″N   35°14′58″E
темп.,
°C
ветер,
м/с
пор.,
м/с
влажн.,
%
обл.,
%
осадки,
мм/ч
давл.,
гПа
погр.,
м
4 марта, чт
чт400:00+1з61397100 0.4 1001953
03:00+1з71497100 2.2 9991055
06:00−1сз51281100 2.2 9981053
09:00−3сз4118686 2.2 999746
12:00−2сз478254 0.0 1000707
15:00−2сз368174 0.1 1000832
18:00−4сз378699 0.1 1001400
21:00−7зсз259471 0.1 1002127
5 марта, пт
пт500:00−6зсз379487 0.0 1003331
03:00−7зсз399591 0.1 1004372
06:00−7зсз399399 0.1 1005494
09:00−7зсз478998 0.1 1007608
12:00−5зсз4677100 0.1 1009929
15:00−4сз3572100 0.3 10101056
18:00−7сз2386100 0.3 101175
21:00−8ссв129587 0.4 101484
6 марта, сб
сб600:00−11ссв129272 0.0 101521
03:00−12сз119136 0.0 101621
06:00−12зсз229130 0.0 101727
09:00−10зсз368936 0.0 1017330
12:00−6зсз357792 0.1 1017967
15:00−5з366896 0.1 10151198
18:00−6юз397792 0.0 1012481
21:00−6юз6137996 0.1 10081005
7 марта, вс
вс700:00−5юз61492100 1.2 10031209
03:00−3юз71691100 2.5 9971294
06:00−3юз71492100 1.1 9921188
09:00−5сз81388100 3.8 9911169
12:00−6зсз71359100 0.8 9932442
15:00−6зсз61169100 1.1 9941697
18:00−6юз41379100 0.2 9921483
21:00−6з5992100 1.8 990774
8 марта, пн
пн800:00−9сз4988100 1.3 992544
03:00−11с51189100 1.4 996688
06:00−12сз6138299 0.0 1000861
09:00−13сз6128899 0.0 1003644
12:00−11сз5983100 0.1 1006823
15:00−10сз5882100 0.2 1009951
18:00−12ссз4888100 0.1 1011783
21:00−14ссз4991100 0.3 1014661